Home > Weather > Missoula > Past weeks

Flag for U.S.A. Weather for the Past 2 Weeks in Missoula, Montana, U.S.A.

Now
33 °F

Overcast.


Feels Like: 33 °F
Forecast: 22 / 44 °F
Wind: No wind

Location: Missoula International Airport

Current Time: Feb 8, 2016 at 10:54:52 AM

Latest Report: Feb 8, 2016 at 9:53 AM


Visibility: 10 mi

Pressure: 30.73 "Hg (27.23 "Hg at 971m altitude)

Humidity: 75%

Dew point: 26 °F

Location of MissoulaLocation

Historic Weather in Missoula — Graph

°F

Missoula Temperature Yesterday

Maximum temperature yesterday: 38 °F (at 3:53 PM)
Minimum temperature yesterday: 19 °F (at 5:53 AM)
Average temperature yesterday: 30 °F

High & Low Weather Summary for the Past Weeks

 TemperatureHumidityPressure
High42 °F (Feb 6, 4:53 AM)100% (Jan 24, 9:04 AM)30.74 "Hg (Jan 24, 9:04 AM)
Low15 °F (Feb 3, 7:00 AM)51% (Feb 7, 3:53 PM)29.68 "Hg (Jan 29, 4:53 PM)
Average30 °F82%30.25 "Hg
* Reported Jan 24 9:04 AM — Feb 8 9:53 AM, Missoula, Weather by CustomWeather, © 2016

Note: Actual official high and low records may vary slightly from our data, if they occured in-between our weather recording intervals... More about our weather records

Advertising

Missoula Weather History for the Previous 24 Hours

 ConditionsComfort  
Time TempWeatherWind HumidityBarometerVisibility
9:53 AM
Mon, Feb 8
33 °FOvercast.No wind75%30.73 "Hg10 mi
8:53 AM32 °FOvercast.No wind82%30.73 "Hg10 mi
7:53 AM31 °FOvercast.No wind82%30.74 "Hg10 mi
6:53 AM31 °FMostly cloudy.No wind79%30.74 "Hg10 mi
5:53 AM31 °FMostly cloudy.No wind79%30.74 "Hg10 mi
4:53 AM31 °FMostly cloudy.3 mph79%30.73 "HgN/A
3:53 AM31 °FOvercast.3 mph79%30.71 "Hg10 mi
2:53 AM31 °FOvercast.3 mph82%30.72 "Hg10 mi
1:53 AM33 °FOvercast.No wind72%30.71 "HgN/A
12:53 AM35 °FOvercast.3 mph61%30.71 "Hg10 mi
11:53 PM
Sun, Feb 7
34 °FOvercast.5 mph73%30.72 "Hg10 mi
10:53 PM33 °FOvercast.6 mph78%30.72 "HgN/A
9:53 PM34 °FOvercast.No wind73%30.72 "HgN/A
8:53 PM35 °FOvercast.No wind70%30.73 "Hg10 mi
7:53 PM34 °FOvercast.3 mph76%30.73 "Hg10 mi
6:53 PM34 °FOvercast.3 mph73%30.71 "HgN/A
5:53 PM34 °FOvercast.5 mph67%30.71 "Hg10 mi
4:53 PM37 °FPartly sunny.3 mph57%30.69 "Hg10 mi
3:53 PM38 °FPartly sunny.No wind51%30.68 "HgN/A
2:53 PM35 °FSunny.No wind59%30.68 "Hg10 mi
1:53 PM35 °FSunny.No wind56%30.68 "Hg10 mi
12:53 PM32 °FSunny.3 mph66%30.69 "Hg10 mi
11:53 AM30 °FSunny.No wind69%30.71 "Hg10 mi
10:53 AM27 °FSunny.No wind75%30.71 "Hg10 mi
Weather by CustomWeather, © 2016

See weather overviewHow to use our weather pages